Weather History for Andalusia, AL

Change the Weather History Date:

Monday, December 31, 2012

  Actual Average (KCEW) Record (KCEW)
Temperature  
Mean Temperature 47 °F -  
Max Temperature 61 °F 60 °F 81 °F (1951)
Min Temperature 33 °F 39 °F 15 °F (1983)
Degree Days  
Heating Degree Days 18    
Moisture  
Dew Point 41 °F    
Average Humidity 65    
Maximum Humidity 82    
Minimum Humidity 53    
Precipitation  
Precipitation 0.00 in - - ()
Sea Level Pressure  
Sea Level Pressure 30.26 in    
Wind  
Wind Speed 1 mph (SE)    
Max Wind Speed 6 mph    
Max Gust Speed -    
Visibility 10 miles    
Events      
Averages and records for this station are not official NWS values.
T = Trace of Precipitation, MM = Missing Value Source: NWS Daily Summary

Daily Weather History Graph

Daily Weather History Graph

Search for Another Location

Airport:

Trip Planner

Search our weather history database for the weather conditions in past years. The results will help you decide how hot, cold, wet, or windy it might be!

Date:

Astronomy

Dec. 31, 2012 Rise Set
Actual Time 6:44 AM CST 4:53 PM CST
Civil Twilight 6:17 AM CST 5:20 PM CST
Nautical Twilight 5:47 AM CST 5:50 PM CST
Astronomical Twilight 5:17 AM CST 6:19 PM CST
Moon 8:09 PM CST (12/31) 8:38 AM CST (12/31)
Length of Visible Light 11h 02m
Length of Day
10h 09m
Waning Gibbous, 90% of the Moon is Illuminated
Dec 31
Waning Gibbous
Jan 4
Last Quarter
Jan 11
New
Jan 18
First Quarter
Jan 26
Full

Hourly Weather History & Observations

Time (CST) Temp. Windchill Dew Point Humidity Pressure Visibility Wind Dir Wind Speed Gust Speed Precip Events Conditions
12:56 AM 33.1 °F - 28.0 °F 82% 30.36 in 10.0 mi Calm Calm - N/A   Clear
1:56 AM 35.1 °F - 28.0 °F 76% 30.36 in 10.0 mi Calm Calm - N/A   Clear
2:56 AM 35.1 °F - 27.0 °F 72% 30.34 in 10.0 mi Calm Calm - N/A   Clear
3:56 AM 35.1 °F - 27.0 °F 72% 30.34 in 10.0 mi Calm Calm - N/A   Clear
4:56 AM 35.1 °F 32.2 °F 28.0 °F 76% 30.35 in 10.0 mi ESE 3.5 mph - N/A   Clear
5:56 AM 34.0 °F 29.8 °F 28.9 °F 82% 30.33 in 10.0 mi SE 4.6 mph - N/A   Clear
6:56 AM 36.0 °F - 28.0 °F 73% 30.34 in 9.0 mi Calm Calm - N/A   Clear
7:56 AM 42.1 °F 39.2 °F 33.1 °F 70% 30.34 in 9.0 mi ESE 4.6 mph - N/A   Clear
8:56 AM 48.0 °F - 35.1 °F 61% 30.36 in 10.0 mi SE 4.6 mph - N/A   Clear
9:26 AM 50.0 °F - 35.6 °F 58% 30.36 in 10.0 mi Calm Calm - N/A   Mostly Cloudy
9:56 AM 51.1 °F - 36.0 °F 56% 30.37 in 10.0 mi Calm Calm - N/A   Overcast
10:56 AM 53.1 °F - 37.9 °F 57% 30.35 in 10.0 mi Calm Calm - N/A   Overcast
11:16 AM 53.6 °F - 39.2 °F 58% 30.33 in 10.0 mi Calm Calm - N/A   Overcast
11:56 AM 57.9 °F - 42.1 °F 56% 30.30 in 10.0 mi SSE 3.5 mph - N/A   Overcast
12:56 PM 60.1 °F - 43.0 °F 53% 30.26 in 10.0 mi Calm Calm - N/A   Mostly Cloudy
1:33 PM 60.8 °F - 44.6 °F 55% 30.24 in 10.0 mi Calm Calm - N/A   Mostly Cloudy
1:48 PM 60.8 °F - 44.6 °F 55% 30.24 in 10.0 mi Calm Calm - N/A   Overcast
1:56 PM 61.0 °F - 44.1 °F 54% 30.23 in 10.0 mi Calm Calm - N/A   Overcast
2:14 PM 60.8 °F - 44.6 °F 55% 30.22 in 10.0 mi Variable 3.5 mph - N/A   Overcast
2:56 PM 60.1 °F - 45.0 °F 57% 30.21 in 10.0 mi SSE 4.6 mph - N/A   Overcast
3:12 PM 60.8 °F - 44.6 °F 55% 30.22 in 10.0 mi SE 3.5 mph - N/A   Overcast
3:56 PM 60.1 °F - 46.0 °F 60% 30.21 in 9.0 mi SE 3.5 mph - N/A   Overcast
4:10 PM 60.8 °F - 46.4 °F 59% 30.21 in 10.0 mi Calm Calm - N/A   Overcast
4:51 PM 59.0 °F - 46.4 °F 63% 30.21 in 10.0 mi Calm Calm - N/A   Overcast
4:56 PM 59.0 °F - 46.9 °F 64% 30.21 in 10.0 mi Calm Calm - N/A   Overcast
5:07 PM 57.2 °F - 46.4 °F 67% 30.21 in 10.0 mi Calm Calm - N/A   Overcast
5:56 PM 57.9 °F - 48.0 °F 70% 30.22 in 9.0 mi Calm Calm - N/A   Overcast
6:11 PM 57.2 °F - 48.2 °F 72% 30.22 in 9.0 mi Calm Calm - N/A   Overcast
6:56 PM 57.0 °F - 48.0 °F 72% 30.22 in 10.0 mi Calm Calm - N/A   Overcast
7:56 PM 55.9 °F - 46.9 °F 72% 30.20 in 10.0 mi SE 4.6 mph - N/A   Overcast
8:56 PM 55.9 °F - 46.9 °F 72% 30.18 in 7.0 mi SSE 5.8 mph - N/A   Overcast
9:56 PM 55.9 °F - 46.9 °F 72% 30.16 in 9.0 mi SE 5.8 mph - N/A   Scattered Clouds
10:56 PM 55.9 °F - 48.0 °F 75% 30.14 in 9.0 mi SSE 4.6 mph - N/A   Clear
11:56 PM 57.0 °F - 48.9 °F 74% 30.13 in 9.0 mi Calm Calm - N/A   Mostly Cloudy